Regional Weather Roundup
Issued by NWS

Home | Current Version | Previous Version | Graphics & Text | Print | Product List | Glossary On
Versions: 1 2 3 4 5 6 7 8 9 10 11 12 13 14 15 16 17 18 19 20 21 22 23 24 25 26 27 28 29 30 31 32 33 34 35 36 37 38 39 40 41 42 43 44 45 46 47 48 49 50
701
ASUS43 KMKX 200421
RWRWI

WISCONSIN REGIONAL WEATHER ROUNDUP
NATIONAL WEATHER SERVICE MILWAUKEE/SULLIVAN WI
1100 PM CDT SAT AUG 19 2017

NOTE: "FAIR" INDICATES FEW OR NO CLOUDS BELOW 12,000 FEET WITH NO
SIGNIFICANT WEATHER AND/OR OBSTRUCTIONS TO VISIBILITY.

WIZ001-002-006>008-014>016-023>028-200500-
NORTHWEST WISCONSIN

CITY           SKY/WX    TMP DP  RH WIND       PRES   REMARKS
SUPERIOR ARPT    N/A     64  61  92 CALM      29.87S
ASHLAND        CLEAR     63  59  87 SW7       29.90R
HAYWARD        CLEAR     59  57  93 CALM      29.92S
SIREN          CLEAR     63  60  90 S5        29.91S
CUMBERLAND     CLEAR     61  59  94 CALM      29.93S
RICE LAKE      CLEAR     61  59  95 CALM      29.94S
CHETEK         CLEAR     62  61  98 MISG      29.93S
LADYSMITH      CLEAR     63  61  91 CALM      29.96S
EAU CLAIRE     CLEAR     64  61  90 S5        29.92S
MENOMONIE      CLEAR     64  62  94 CALM      29.93R
NEW RICHMOND   CLEAR     64  61  92 SE3       29.92S
OSCEOLA        CLEAR     64  64 100 SE5       29.93S
$$

WIZ003>005-009-010-017-018-200500-
NORTH CENTRAL WISCONSIN

CITY           SKY/WX    TMP DP  RH WIND       PRES   REMARKS
MANITOWISH WTR CLEAR     60  60 100 CALM      29.95R
ARBOR VITAE    CLEAR     62  59  91 CALM      29.95S
WOODRUFF       CLEAR     62  59  91 CALM      29.95S
RHINELANDER    CLEAR     60  60 100 W3        29.97R
EAGLE RIVER    CLEAR     59  59  99 SW5       29.95R
LAND O LAKES   CLEAR     56  56 100 CALM      29.97R FOG
PHILLIPS       CLEAR     62  61  94 SW5       29.95R
TOMAHAWK         N/A     56  55  95 CALM      29.96S FOG
MEDFORD        CLEAR     59  57  92 S3        29.96S
MERRILL        CLEAR     57  57 100 CALM      29.96S
$$

WIZ029-030-035-036-043>047-200500-
CENTRAL WISCONSIN

CITY           SKY/WX    TMP DP  RH WIND       PRES   REMARKS
WAUSAU         CLEAR     64  60  87 CALM      29.95R
MOSINEE        CLEAR     59  59 100 CALM      29.97S
MARSHFIELD     CLEAR     63  59  87 SW5       29.96R
STEVENS POINT  CLEAR     57  57 100 CALM      29.97S
WAUPACA        CLEAR     64  60  87 CALM      29.96S
WAUTOMA        CLEAR     60  59  96 CALM      29.97R
WISC RAPIDS    CLEAR     60  59  96 CALM      29.97S
CAMP DOUGLAS   FOG       55  55 100 CALM      29.96S VSB 1/2
$$

WIZ011>013-019>022-031-037>040-048>050-200500-
NORTHEAST WISCONSIN

CITY           SKY/WX    TMP DP  RH WIND       PRES   REMARKS
ANTIGO         CLEAR     58  56  95 CALM      29.97S
SHAWANO        CLEAR     66  62  85 CALM      29.94R
OCONTO         CLEAR     62  60  94 CALM      29.93R
STURGEON BAY   CLEAR     68  62  81 SW6       29.94R
GREEN BAY      CLEAR     63  62  97 CALM      29.94R
MANITOWOC      CLEAR     68  61  78 SW7       29.95S
APPLETON       CLEAR     68  55  64 SW7       29.94S
CLINTONVILLE   CLEAR     61  59  94 CALM      29.94S
OSHKOSH        CLEAR     69  61  75 SW5       29.95S
$$

WIZ032>034-041-042-053>061-200500-
SOUTHWEST WISCONSIN

CITY           SKY/WX    TMP DP  RH WIND       PRES   REMARKS
LA CROSSE      CLEAR     67  63  87 SE5       29.94R
SPARTA         CLEAR     57  57  99 CALM      29.96S
VIROQUA        CLEAR     66  59  79 CALM      29.97S
BOSCOBEL       FOG       61  60  97 CALM      29.97R VSB 1/2
PRAIRIE DU CHI CLEAR     65  61  87 CALM      29.96S
PLATTEVILLE    CLEAR     67  63  85 SE5       29.98S
$$

WIZ056-057-062-063-064-067-068-200500-
SOUTH CENTRAL WISCONSIN

CITY           SKY/WX    TMP DP  RH WIND       PRES   REMARKS
REEDSBURG      CLEAR     61  61 100 CALM      29.97S
BARABOO/DELLS  CLEAR     63  59  87 S5        29.97S
LONE ROCK      CLEAR     61  61 100 E3        29.97R
MINERAL POINT  CLEAR     68  63  83 S3        29.99S
MADISON        CLEAR     64  62  93 CALM      29.97R
MIDDLETON      CLEAR     63  63 100 CALM      29.98S
WATERTOWN      CLEAR     63  63 100 CALM      29.98S
MONROE         CLEAR     68  61  77 S6        29.98S
JANESVILLE     CLEAR     64  64 100 CALM      29.97F
$$

WIZ051-052-058>065-066-070>072-200500-
SOUTHEAST WISCONSIN

CITY           SKY/WX    TMP DP  RH WIND       PRES   REMARKS
MILWAUKEE      CLEAR     70  63  78 SW5       29.98R
WAUKESHA       CLEAR     63  59  88 CALM      30.00R
MILWAUKEE/TIMM CLEAR     64  57  77 CALM      29.99R
RACINE         CLEAR     66  61  84 S3        30.00R
KENOSHA        CLEAR     67  57  70 S5        29.99R
FOND DU LAC    CLEAR     66  61  84 S6        29.96S
SHEBOYGAN      CLEAR     64  63  96 SW5       29.96R
WEST BEND      CLEAR     63  61  94 CALM      29.98S
JUNEAU         CLEAR     65  61  87 CALM      29.98S
$$

LSZ147-162-200500-
LAKE SUPERIOR

STATION/POSITION TIME  TEMP    WIND        PRES    WAVE
                       AIR SEA DIR/SP/G            HT/PER
                 (UTC) (F)     (DEG/KT/KT) (MB)    (FT/S)
W MID LAKE BUOY  0350   65 60  220/ 12/ 12 1010.6R   1/ 3
DEVILS ISLAND    0400   70     210/ 13/ 15 1011.3R
SAXON HARBOR     0330   66     190/  4/  6 1011.5S
$$

LMZ867-665-643>646-200500-
LAKE MICHIGAN

STATION/POSITION TIME  TEMP    WIND        PRES    WAVE
                       AIR SEA DIR/SP/G            HT/PER
                 (UTC) (F)     (DEG/KT/KT) (MB)    (FT/S)
S GREEN BAY BUOY 0400   72 71  230/  8/  8 1013.2
N MID LAKE BUOY  0350   69 67  230/ 10/ 12 1012.9R   2/ 4
NORTHPORT PIER   0340   72     250/  2/  9 1012.5R
KEWAUNEE LAKESHO 0354   70     310/  2/  4 1013.0R
SHEBOYGAN LAKESH 0400   72     240/  8/  9 1014.1R
PORT WASHINGTON  0330   71     270/  4/  5 1015.6R
ATWATER BUOY     0339   71 70  200/  6/  6 1015.1R
MILWAUKEE LAKESH 0400   73     210/  6/  7   N/A
S MID LAKE BUOY  0350   72 71  190/  6/  8 1015.3R   1
KENOSHA   LAKESH 0400   71     200/  5/  7 1015.2
$$

TC  - TEMPERATURE IN CELSIUS
VSB - VISIBILITY IN STATUTE MILES
WCI - WIND CHILL INDEX
HX  - HEAT INDEX





USA.gov is the U.S. government's official web portal to all federal, state and local government web resources and services.